Orbital Elements at Epoch 2459000.5 (2020-May-31.0) TDB
Reference: JPL 14 (heliocentric ecliptic J2000)
Element | Value | Uncertainty (1-sigma) | Units |
e | .2001588836510794 | 8.5252e-08 | |
a | 2.204069504858704 | 1.1335e-08 | au |
q | 1.762905413276798 | 1.8839e-07 | au |
i | 2.649538184438802 | 6.44e-06 | deg |
node | 250.9963038436736 | 0.00018164 | deg |
peri | 105.4364227500229 | 0.00018235 | deg |
M | 51.96760984816495 | 1.499e-05 | deg |
tp | 2458827.969215327004 (2019-Dec-10.46921533) | 4.9369e-05 | TDB |
period | 1195.188361822874 3.27 | 9.2201e-06 2.524e-08 | d yr |
n | .3012077522667108 | 2.3236e-09 | deg/d |
Q | 2.64523359644061 | 1.3604e-08 | au |
|
| | Orbit Determination Parameters
Additional Information
|